This is the latest recevied weather packets stored in our database for station/object KG7BDA. If no packets are shown the sender has not sent any weather packets the latest 10 day(s).
| Time | Temp. | Humidity | Pressure | Rain* | Wind** | Luminosity | Snow |
|---|---|---|---|---|---|---|---|
| 1777485794 | 16.11° C | 40% | 1021.2 hPa | 0 mm | - | - | - |
| 1777485434 | 15.56° C | 41% | 1021.2 hPa | 0 mm | - | - | - |
| 1777485074 | 15.56° C | 43% | 1021.1 hPa | 0 mm | - | - | - |
| 1777484749 | 15° C | 42% | 1021.2 hPa | 0 mm | - | - | - |
| 1777484714 | 15° C | 42% | 1021.2 hPa | 0 mm | - | - | - |
| 1777484354 | 15.56° C | 43% | 1021.3 hPa | 0 mm | - | - | - |
| 1777483634 | 15.56° C | 45% | 1021.1 hPa | 0 mm | - | - | - |
| 1777483274 | 15.56° C | 43% | 1021.1 hPa | 0 mm | - | - | - |
| 1777482914 | 15° C | 41% | 1021.1 hPa | 0 mm | - | - | - |
| 1777482553 | 15° C | 41% | 1021.1 hPa | 0 mm | - | - | - |
| 1777482193 | 15° C | 42% | 1021.1 hPa | 0 mm | - | - | - |
| 1777481834 | 15° C | 42% | 1021 hPa | 0 mm | - | - | - |
| 1777481114 | 14.44° C | 43% | 1021 hPa | 0 mm | - | - | - |
| 1777480754 | 14.44° C | 43% | 1020.9 hPa | 0 mm | - | - | - |
| 1777480394 | 13.89° C | 46% | 1021 hPa | 0 mm | - | - | - |
| 1777480034 | 13.33° C | 46% | 1021 hPa | 0 mm | - | - | - |
| 1777479673 | 13.33° C | 46% | 1021 hPa | 0 mm | - | - | - |
| 1777479365 | 13.33° C | 47% | 1021 hPa | 0 mm | - | - | - |
| 1777479313 | 13.33° C | 47% | 1021 hPa | 0 mm | - | - | - |
| 1777478953 | 12.78° C | 45% | 1021 hPa | 0 mm | - | - | - |
| 1777478594 | 12.78° C | 46% | 1020.9 hPa | 0 mm | - | - | - |
| 1777478234 | 12.78° C | 46% | 1021.1 hPa | 0 mm | - | - | - |
| 1777477874 | 12.78° C | 46% | 1021.2 hPa | 0 mm | - | - | - |
| 1777477514 | 12.22° C | 45% | 1021 hPa | 0 mm | - | - | - |
| 1777477154 | 12.22° C | 47% | 1020.9 hPa | 0 mm | - | - | - |
* Rain latest hour (hover to see other rain measurements)
** Current wind speed in m/s (hover to see current wind gust speed)